Tracking 28790 objects as of 19-Apr-2024
HD Live streaming from Space Station
objects crossing your sky now

SL-24 DEB

Track SL-24 DEB now!
10-day predictions


NORAD ID: 33398
Int'l Code: 2008-049C
Perigee: 616.7 km
Apogee: 650.9 km
Inclination: 98.8 °
Period: 97.2 minutes
Semi major axis: 7004 km
RCS: 7.1923 m2 (large)
Launch date: October 1, 2008
Source: Commonwealth of Independent States (former USSR) (CIS)
Launch site: Orenburg, Russia (OREN)

Note: This is SATELLITE DEBRIS
Your satellite tracking list
Your tracking list is empty




NASA's NSSDC Master Catalog

Two Line Element Set (TLE):
1 33398U 08049C   24109.74449456  .00007703  00000-0  10004-2 0  9990
2 33398  98.7814  21.1314 0024403 199.4320 160.5962 14.80840973836097
Source of the keplerian elements: AFSPC